[[{"header":{"parameterUnit":"m.s-1","parameterCategory":1,"la1":30.2991,"la2":30.254,"lo1":-89.0895,"lo2":-89.0444,"dy":0.0017,"dx":0.0017,"nx":28,"ny":28,"refTime":"2025-04-01T03:00:00:Z","depth":0,"parameterNumber":2,"parameterNumberName":"U-component_of_WINDS"},"data":[0,0,0,0,0,0,0,0,0,0,0,0,0,0,0,0,0,0,0,0,0,0,0,0,0,0,0,0,0,0,0,0,0,0,0,0,0,0,0,0,0,0,0,0,0,0,0,0,0,0,0,0,0,0,0,0,0,0,-4.1711,-4.1712,0,-4.1829,-4.1831,-4.1832,-4.1853,-4.1852,-4.1851,-4.185,-4.1971,-4.1975,-4.1979,0,0,0,0,0,0,0,0,0,0,0,0,0,-4.1502,-4.1506,-4.171,-4.1712,-4.1713,-4.1829,-4.1831,-4.1832,-4.1853,-4.1852,-4.1851,-4.1849,-4.197,-4.1974,-4.1979,0,0,0,0,0,0,0,0,0,0,0,0,0,-4.1604,-4.1507,-4.171,-4.1738,-4.1741,-4.1829,-4.1831,-4.1833,-4.1853,-4.1852,-4.185,-4.1849,-4.1968,-4.1974,-4.198,-4.2048,0,0,-4.1999,-4.2002,0,0,0,0,0,0,0,0,-4.1598,-4.1611,-4.1732,-4.1736,-4.174,-4.1825,-4.1802,-4.1905,-4.1854,-4.1811,-4.185,-4.1848,-4.1923,-4.1933,-4.1959,-4.2054,-4.2059,-4.2,-4.2003,-4.2006,-4.2008,0,0,0,0,0,0,0,-4.1591,-4.1606,-4.1757,-4.1734,-4.1739,-4.1744,-4.1757,-4.1821,-4.1874,-4.1814,-4.1816,-4.183,-4.1925,-4.1953,-4.1962,-4.2061,-4.1999,-4.2005,-4.2009,-4.2011,-4.2218,-4.2219,0,0,0,0,0,0,-4.1579,-4.16,-4.1754,-4.1761,-4.1664,-4.1749,-4.1764,-4.1799,-4.1873,-4.1883,-4.1831,-4.1831,-4.1943,-4.1954,-4.1966,-4.205,-4.2006,-4.2012,-4.2015,-4.2216,-4.2218,-4.222,0,0,0,0,0,0,-4.1574,-4.1592,-4.1749,-4.1681,-4.1702,-4.1754,-4.1794,-4.1802,-4.1829,-4.1886,-4.1895,-4.1849,-4.1942,-4.1957,-4.2028,-4.2054,-4.2015,-4.202,-4.2214,-4.2217,-4.2219,-4.2218,0,0,0,0,0,0,-4.1568,-4.1591,-4.1617,-4.1682,-4.1705,-4.1808,-4.1796,-4.1806,-4.184,-4.1841,-4.1906,-4.1915,-4.1942,-4.2018,-4.2034,-4.2062,-4.2025,-4.2212,-4.2215,-4.2218,-4.2216,-4.2221,-4.2224,0,0,0,0,0,-4.1561,-4.1612,-4.1618,-4.1636,-4.1739,-4.181,-4.1823,-4.1853,-4.1842,-4.1869,-4.1906,-4.1913,-4.205,-4.2025,-4.2043,-4.2074,-4.221,-4.2214,-4.2218,-4.2214,-4.222,-4.2224,0,0,0,0,0,0,-4.1548,-4.1621,-4.1628,-4.1702,-4.1749,-4.1813,-4.1847,-4.1858,-4.191,-4.1908,-4.1944,-4.1958,-4.2026,-4.2058,-4.2029,-4.2144,-4.2129,-4.2137,-4.212,-4.2126,-4.213,-4.212,-4.203,0,0,0,0,0,-4.1554,-4.1605,-4.1666,-4.1725,-4.1749,-4.1794,-4.1826,-4.1846,-4.1896,-4.1916,-4.1958,-4.2007,-4.2061,-4.2095,-4.2148,-4.2222,-4.2236,-4.2252,-4.2256,-4.2259,-4.2264,-4.2305,-4.2313,-4.2233,-4.2233,-4.2233,0,0,-4.1566,-4.1612,-4.1642,-4.1724,-4.1763,-4.1815,-4.1811,-4.1866,-4.1905,-4.1925,-4.1993,-4.2026,-4.2083,-4.2155,-4.2189,-4.2183,-4.229,-4.2264,-4.2266,-4.227,-4.231,-4.2318,-4.2324,-4.2236,-4.2235,-4.2235,0,0,-4.1614,-4.1655,-4.1708,-4.1748,-4.1808,-4.1838,-4.1851,-4.1913,-4.1936,-4.2005,-4.2021,-4.2069,-4.2161,-4.2201,-4.2233,-4.2299,-4.2307,-4.2315,-4.2336,-4.2375,-4.2381,-4.2387,-4.2409,-4.2417,-4.2321,-4.2321,-4.2321,0,-4.1622,-4.1701,-4.1734,-4.1789,-4.1824,-4.1846,-4.19,-4.1937,-4.201,-4.2034,-4.2027,-4.2144,-4.2184,-4.2265,-4.2281,-4.2307,-4.2323,-4.2307,-4.2378,-4.2384,-4.239,-4.2411,-4.242,-4.2321,-4.2321,-4.2321,-4.2321,0,-4.1707,-4.1762,-4.1798,-4.1869,-4.1908,-4.1963,-4.2004,-4.204,-4.2057,-4.2088,-4.2159,-4.2208,-4.2271,-4.2292,-4.2309,-4.2377,-4.2371,-4.2371,-4.2356,-4.2397,-4.2418,-4.2427,-4.2322,-4.2322,-4.2322,-4.2322,0,0,-4.1748,-4.1838,-4.185,-4.1883,-4.1951,-4.1994,-4.205,-4.2112,-4.2142,-4.2193,-4.224,-4.2318,-4.2319,-4.2355,-4.2377,-4.2412,-4.246,-4.2408,-4.241,-4.2414,-4.2536,-4.2534,-4.2543,-4.2467,-4.2469,-4.247,-4.2531,0,-4.1804,-4.1903,-4.1935,-4.2018,-4.2069,-4.209,-4.2139,-4.2186,-4.2217,-4.2265,-4.23,-4.2354,-4.2351,-4.2373,-4.2409,-4.2446,-4.2484,-4.2443,-4.251,-4.2512,-4.2493,-4.2554,-4.2553,-4.2607,-4.2539,-4.2541,-4.2542,0,-4.1881,-4.1933,-4.202,-4.2083,-4.2105,-4.2148,-4.2208,-4.2254,-4.2308,-4.2328,-4.237,-4.2389,-4.2449,-4.2433,-4.2515,-4.2486,-4.2516,-4.2539,-4.2541,-4.2547,-4.2528,-4.256,-4.2626,-4.2633,-4.2555,-4.2554,-4.2553,0,-4.19,-4.1993,-4.2057,-4.2084,-4.2159,-4.2188,-4.2221,-4.2274,-4.2309,-4.2362,-4.2385,-4.2444,-4.2475,-4.2521,-4.2556,-4.2541,-4.2634,-4.2622,-4.2652,-4.2651,-4.2668,-4.2666,-4.2738,-4.2691,-4.2691,-4.2691,-4.2691,0,-4.1957,-4.2009,-4.2066,-4.2106,-4.2165,-4.2203,-4.2261,-4.2294,-4.2342,-4.2388,-4.2411,-4.2454,-4.2499,-4.2548,-4.2576,-4.2639,-4.2654,-4.2671,-4.2678,-4.2668,-4.2666,-4.2686,-4.2683,-4.2693,-4.2693,-4.2692,-4.2692,0,-4.1987,-4.2028,-4.2099,-4.2164,-4.2182,-4.2223,-4.2279,-4.2318,-4.2351,-4.2409,-4.2425,-4.2477,-4.2536,-4.2576,-4.2652,-4.2671,-4.2738,-4.2745,-4.272,-4.2722,-4.275,-4.2746,-4.2835,-4.2848,-4.2795,-4.2795,-4.2796,0,-4.202,-4.2061,-4.2131,-4.2163,-4.2196,-4.2249,-4.2285,-4.2324,-4.2361,-4.2426,-4.2458,-4.2518,-4.2569,-4.2662,-4.2706,-4.2765,-4.2772,-4.2799,-4.278,-4.2769,-4.277,-4.2767,-4.277,-4.2801,-4.2802,-4.2802,-4.2802,0,-4.2073,-4.2092,-4.2143,-4.2202,-4.2245,-4.2293,-4.2341,-4.2367,-4.2414,-4.2455,-4.2515,-4.2555,-4.2632,-4.2692,-4.2755,-4.2789,-4.2803,-4.2808,-4.2818,-4.2807,-4.279,-4.2798,-4.2725,-4.2805,-4.2805,-4.2805,-4.2805,-4.2804,-4.2105,-4.2142,-4.2197,-4.2253,-4.2294,-4.2339,-4.2379,-4.2417,-4.2468,-4.2534,-4.2555,-4.2618,-4.2672,-4.2758,-4.2793,-4.2843,-4.284,-4.2855,-4.2858,-4.2861,-4.286,-4.2784,-4.2855,-4.2855,-4.2855,-4.2855,-4.2855,0,-4.2158,-4.2195,-4.2246,-4.2313,-4.2358,-4.2369,-4.2424,-4.246,-4.2515,-4.2565,-4.2614,-4.2684,-4.2743,-4.2792,-4.2853,-4.2883,-4.2891,-4.2898,-4.2895,-4.2902,-4.2859,-4.2844,-4.289,-4.289,-4.289,-4.289,-4.289,-4.289,-4.219,-4.2254,-4.2279,-4.2362,-4.2399,-4.2461,-4.2491,-4.2532,-4.2572,-4.2649,-4.2698,-4.273,-4.278,-4.2844,-4.2898,-4.2912,-4.2932,-4.2936,-4.2951,-4.2909,-4.2905,-4.2901,-4.2887,-4.2941,-4.2941,-4.2989,-4.299,-4.299]},{"header":{"parameterUnit":"m.s-1","parameterCategory":1,"la1":30.2991,"la2":30.254,"lo1":-89.0895,"lo2":-89.0444,"dy":0.0017,"dx":0.0017,"nx":28,"ny":28,"refTime":"2025-04-01T03:00:00:Z","depth":0,"parameterNumber":3,"parameterNumberName":"V-component_of_WINDS"},"data":[0,0,0,0,0,0,0,0,0,0,0,0,0,0,0,0,0,0,0,0,0,0,0,0,0,0,0,0,0,0,0,0,0,0,0,0,0,0,0,0,0,0,0,0,0,0,0,0,0,0,0,0,0,0,0,0,0,0,4.5341,4.5342,0,4.5449,4.545,4.5451,4.5465,4.5464,4.5463,4.5462,4.5571,4.5575,4.5578,0,0,0,0,0,0,0,0,0,0,0,0,0,4.5147,4.5151,4.5341,4.5342,4.5344,4.5449,4.545,4.5452,4.5465,4.5464,4.5462,4.5461,4.557,4.5574,4.5579,0,0,0,0,0,0,0,0,0,0,0,0,0,4.5241,4.5152,4.5341,4.5363,4.5366,4.5448,4.545,4.5452,4.5465,4.5464,4.5462,4.5461,4.5568,4.5574,4.5579,4.5647,0,0,4.5597,4.56,0,0,0,0,0,0,0,0,4.5236,4.5248,4.5358,4.5362,4.5365,4.5442,4.5422,4.5517,4.5466,4.5428,4.5462,4.546,4.5529,4.5538,4.5562,4.5652,4.5656,4.5598,4.5601,4.5604,4.5605,0,0,0,0,0,0,0,4.5229,4.5243,4.5384,4.536,4.5364,4.5368,4.5379,4.544,4.5486,4.5431,4.5432,4.5445,4.5531,4.5556,4.5564,4.5658,4.5598,4.5603,4.5606,4.5609,4.5812,4.5814,0,0,0,0,0,0,4.5219,4.5238,4.538,4.5387,4.5295,4.5373,4.5386,4.5419,4.5485,4.5494,4.5446,4.5445,4.5547,4.5557,4.5568,4.5653,4.5604,4.5609,4.5612,4.581,4.5812,4.5814,0,0,0,0,0,0,4.5214,4.5231,4.5376,4.5313,4.5332,4.5378,4.5415,4.5422,4.5447,4.5497,4.5505,4.5463,4.5546,4.556,4.5628,4.5657,4.5612,4.5617,4.5808,4.5811,4.5813,4.5823,0,0,0,0,0,0,4.5209,4.5229,4.5255,4.5313,4.5335,4.5434,4.5417,4.5425,4.5457,4.5457,4.5515,4.5523,4.5546,4.5619,4.5634,4.5664,4.5622,4.5805,4.5809,4.5813,4.582,4.5826,4.5831,0,0,0,0,0,4.5202,4.5253,4.5256,4.5273,4.5368,4.5435,4.5447,4.5473,4.546,4.5486,4.5518,4.5521,4.5652,4.5626,4.5642,4.5675,4.5804,4.5808,4.5812,4.5818,4.5825,4.583,0,0,0,0,0,0,4.5195,4.526,4.5265,4.5336,4.538,4.5437,4.5471,4.5479,4.5527,4.5524,4.5554,4.5567,4.5634,4.5661,4.5631,4.5746,4.5726,4.5734,4.5725,4.5732,4.5737,4.5729,4.5626,0,0,0,0,0,4.5202,4.5252,4.5306,4.5363,4.5385,4.5425,4.5455,4.5471,4.5517,4.5536,4.5573,4.5617,4.5669,4.5702,4.5751,4.5824,4.5838,4.5855,4.5861,4.5865,4.5871,4.5914,4.5923,4.5829,4.5829,4.5829,0,0,4.5217,4.5259,4.5288,4.5363,4.5399,4.545,4.544,4.5493,4.5532,4.5543,4.5611,4.564,4.5692,4.5763,4.5796,4.5788,4.5901,4.587,4.5873,4.5877,4.592,4.5929,4.5937,4.5832,4.5831,4.5831,0,0,4.527,4.5306,4.5359,4.5396,4.5451,4.5477,4.549,4.5547,4.5567,4.5635,4.5646,4.5692,4.5779,4.5816,4.5847,4.5917,4.5923,4.5933,4.596,4.6002,4.6009,4.6016,4.6043,4.6052,4.5939,4.5939,4.5939,0,4.5281,4.5359,4.5385,4.544,4.5474,4.5488,4.5543,4.5577,4.5645,4.5668,4.5658,4.577,4.5806,4.5887,4.5905,4.5928,4.5945,4.5926,4.6006,4.6013,4.602,4.6046,4.6056,4.594,4.594,4.594,4.594,0,4.5371,4.5425,4.5461,4.5528,4.5566,4.562,4.5656,4.5691,4.5704,4.5732,4.5802,4.5846,4.5906,4.5927,4.5939,4.6011,4.6005,4.6,4.5981,4.6029,4.6054,4.6065,4.5941,4.5941,4.5941,4.594,0,0,4.5422,4.5505,4.5518,4.555,4.5613,4.5655,4.5711,4.5771,4.5801,4.5848,4.5897,4.5971,4.5968,4.6003,4.602,4.6057,4.6113,4.6048,4.605,4.606,4.6197,4.6201,4.6212,4.6117,4.6119,4.612,4.6193,0,4.5484,4.5584,4.5611,4.5696,4.5747,4.5762,4.5811,4.5856,4.5883,4.5931,4.5962,4.6015,4.6006,4.6028,4.6064,4.6098,4.6141,4.6093,4.6163,4.6165,4.6151,4.6225,4.6229,4.6296,4.6203,4.6205,4.6206,0,4.5569,4.562,4.571,4.5769,4.5791,4.5835,4.5893,4.5938,4.599,4.6008,4.6048,4.6062,4.6122,4.61,4.6184,4.6151,4.6181,4.6203,4.6206,4.6214,4.6189,4.6237,4.6317,4.6328,4.6221,4.622,4.6219,0,4.56,4.569,4.5757,4.5783,4.5853,4.5884,4.5914,4.5964,4.5999,4.605,4.6074,4.613,4.6162,4.6206,4.6236,4.6217,4.6318,4.6298,4.6336,4.6335,4.6357,4.6355,4.6445,4.6374,4.6374,4.6374,4.6374,0,4.5666,4.5722,4.5772,4.5813,4.5876,4.5907,4.5968,4.5999,4.6044,4.6092,4.6108,4.6153,4.619,4.624,4.6264,4.6331,4.6344,4.6361,4.6367,4.6361,4.6359,4.6382,4.6378,4.6377,4.6376,4.6375,4.6375,0,4.5711,4.5747,4.5821,4.5882,4.5899,4.5943,4.5995,4.6036,4.6065,4.6126,4.6142,4.6188,4.6248,4.6282,4.6357,4.6374,4.6449,4.6452,4.6432,4.6435,4.6471,4.6468,4.6579,4.6596,4.6513,4.6513,4.6514,0,4.5752,4.5796,4.5862,4.5896,4.5927,4.5981,4.6017,4.605,4.6087,4.6151,4.6185,4.6246,4.6297,4.6392,4.6432,4.6491,4.6496,4.6531,4.6505,4.6498,4.6499,4.6496,4.6502,4.6536,4.6537,4.6537,4.6538,0,4.5822,4.5838,4.589,4.595,4.5993,4.6041,4.6089,4.6116,4.6157,4.6198,4.626,4.63,4.6378,4.6439,4.6501,4.6533,4.6543,4.6546,4.6558,4.6552,4.654,4.6549,4.6446,4.6543,4.6543,4.6542,4.6542,4.6542,4.5868,4.5908,4.5961,4.602,4.6059,4.6104,4.6147,4.6182,4.6235,4.6301,4.6317,4.6383,4.6436,4.652,4.6554,4.6607,4.6601,4.6617,4.6622,4.6626,4.6628,4.653,4.6618,4.6618,4.6618,4.6618,4.6617,0,4.594,4.5976,4.6029,4.6096,4.6143,4.6148,4.6202,4.6241,4.6299,4.6347,4.6398,4.647,4.653,4.6576,4.6638,4.6671,4.6678,4.6687,4.6685,4.6693,4.6629,4.6614,4.6681,4.6681,4.6681,4.6681,4.6681,4.6681,4.5983,4.6052,4.6075,4.6164,4.62,4.6265,4.6296,4.6338,4.6377,4.6458,4.6508,4.6538,4.6586,4.6652,4.6708,4.672,4.6742,4.6751,4.6764,4.6704,4.6697,4.6691,4.6676,4.6755,4.6755,4.6824,4.6824,4.6825]}]]